Regional Weather Roundup
Issued by NWS

Home | Current Version | Previous Version | Graphics & Text | Print | Product List | Glossary On
Versions: 1 2 3 4 5 6 7 8 9 10 11 12 13 14 15 16 17 18 19 20 21 22 23 24 25 26 27 28 29 30 31 32 33 34 35 36 37 38 39 40 41 42 43 44 45 46 47 48 49 50
000
ASUS43 KLMK 020302
RWRKY
KENTUCKY REGIONAL WEATHER ROUNDUP
NATIONAL WEATHER SERVICE LOUISVILLE KY
1000 PM EST THU DEC 01 2016

NOTE "FAIR" INDICATES FEW OR NO CLOUDS BELOW 12,000 FEET
WITH NO SIGNIFICANT WEATHER AND/OR OBSTRUCTIONS TO VISIBILITY.

KYZ001>023-026-027-061>063-070>075-020400-
WESTERN AND SOUTH CENTRAL KENTUCKY

CITY           SKY/WX    TMP DP  RH WIND       PRES   REMARKS
PADUCAH        PTCLDY    35  28  75 SW3       30.08S
HENDERSON      PTCLDY    30  27  86 CALM      30.10R
OWENSBORO      PTCLDY    35  30  82 CALM      30.11R
HOPKINSVILLE   CLEAR     38  28  67 CALM      30.10S
BOWLING GREEN  CLEAR     37  27  67 W5        30.10R WCI  33
GLASGOW        CLEAR     33  30  88 CALM      30.09R
$$

KYZ024-025-028>034-038-045-046-053-020400-
NORTH CENTRAL KENTUCKY

CITY           SKY/WX    TMP DP  RH WIND       PRES   REMARKS
LOUISVILLE/SDF MOCLDY    38  27  64 NW7       30.08R WCI  33
LOUISVILLE/LOU CLEAR     40  28  62 NW6       30.09R
FORT KNOX      CLEAR     34  27  76 CALM      30.06R
$$

KYZ035>037-039>044-047>052-055>060-089>105-020400-
NORTHEAST KENTUCKY

CITY           SKY/WX    TMP DP  RH WIND       PRES   REMARKS
LEXINGTON      CLEAR     37  26  64 W6        30.06R WCI  32
COVINGTON      PTCLDY    32  27  81 W6        30.05R WCI  26
FRANKFORT      CLEAR     35  26  69 CALM      30.06R
$$

KYZ054-064>069-076>088-106>120-020400-
SOUTHEAST KENTUCKY

CITY           SKY/WX    TMP DP  RH WIND       PRES   REMARKS
JACKSON        CLEAR     39  28  64 SW3       30.04R
LONDON         CLEAR     34  27  75 CALM      30.07R
SOMERSET       CLEAR     32  28  86 CALM      30.09R
MIDDLESBORO    CLEAR     32  31  98 CALM      30.08R FOG
MONTICELLO     CLEAR     26  25  96 VRB7      30.10R WCI  18
$$





USA.gov is the U.S. government's official web portal to all federal, state and local government web resources and services.